User: anonymous   Login
Location: Owatonna
(44.0840°N, 93.2260°W)
Time: 02:24:47
(UTC-05:00)
Language:

Cosmos 839 Rocket - Orbit

View from above orbital plane
View from above orbital plane
View from above satellite
View from above satellite

Ground track
Ground track

The orbit data is extracted from the following two-line orbital elements,

1  9013U 76067B   16151.94950241 -.00000050 +00000-0 +20651-4 0  9991
2  9013 065.8673 028.4889 0719749 223.3305 233.3825 12.35322578799193
Epoch (UTC): 30 May 2016 22:47:17
Eccentricity: 0.0719749
inclination: 65.8673°
perigee height: 957 km
apogee height: 2095 km
right ascension of ascending node: 28.4889°
argument of perigee: 223.3305°
revolutions per day: 12.35322578
mean anomaly at epoch: 233.3825°
orbit number at epoch: 79919

The dashed part of the orbit path shows where the satellite is in the earth's shadow,  

DLR